Location: Stuttgart
(48.8069°N, 9.1544°E)
Time: 02:41:23
(UTC+02:00)

ISS - Pass Details

Date: 11 May 2021
Orbit: 417 x 422 km, 51.6° (Epoch: 15 June)

Event Time Altitude Azimuth Distance (km) Brightness Sun altitude
Exits shadow 03:36:06 10° 287° (WNW) 1,529 -1.1 -16.7°
Reaches altitude 10° 03:36:09 10° 287° (WNW) 1,509 -1.1 -16.7°
Maximum altitude 03:39:28 52° 5° (N) 535 -2.9 -16.4°
Drops below altitude 10° 03:42:48 10° 84° (E) 1,510 -0.4 -16.1°
Sets 03:44:56 0° 89° (E) 2,375 0.6 -15.9°
